Regional Weather Roundup
Issued by NWS

Home | Current Version | Previous Version | Text Only | Print | Product List | Glossary Off
Versions: 1 2 3 4 5 6 7 8 9 10 11 12 13 14 15 16 17 18 19 20 21 22 23 24 25 26 27 28 29 30 31 32 33 34 35 36 37 38 39 40 41 42 43 44 45 46 47 48 49 50

000
ASUS43 KBIS 280710
RWRND

NORTH DAKOTA REGIONAL WEATHER ROUNDUP
NATIONAL WEATHER SERVICE BISMARCK ND
100 AM CST SAT FEB 28 2015

NOTE: "FAIR" INDICATES FEW OR NO CLOUDS BELOW 12,000 FEET WITH NO
SIGNIFICANT WEATHER AND/OR OBSTRUCTIONS TO VISIBILITY.


NDZ001>003-009>011-017-280800-
NORTHWEST NORTH DAKOTA

CITY           SKY/WX    TMP DP  RH WIND       PRES   REMARKS
WILLISTON      PTCLDY     5   2  87 NE3       30.04S
MINOT          CLOUDY    15   2  56 S21G30    30.06F WCI  -2
MINOT AFB      CLOUDY    15   5  67 SW16      30.07F WCI  -1
$$

NDZ018>021-031>035-040>046-280800-
SOUTHWEST NORTH DAKOTA

CITY           SKY/WX    TMP DP  RH WIND       PRES   REMARKS
BISMARCK       MOCLDY     9   0  67 SE9       30.13F WCI  -4
DICKINSON      PTCLDY    11   3  70 S10       29.98F WCI  -3
GARRISON         N/A     11   2  67 S8        30.07F WCI  -1
HETTINGER ARPT PTCLDY    10   2  69 SE5       30.01F WCI   2
$$

NDZ004>008-012>016-024-026-027-054-280800-
NORTHEAST NORTH DAKOTA

CITY           SKY/WX    TMP DP  RH WIND       PRES   REMARKS
GRAND FORKS    PTCLDY     3  -4  72 S12       30.30F WCI -13
GRND FRKS AFB  PTCLDY     3  -4  71 S10       30.28F WCI -12
DEVILS LAKE    PTCLDY     3  -6  66 S7        30.18F WCI  -9
$$

NDZ022-023-025-028>030-036>039-047>053-280800-
SOUTHEAST NORTH DAKOTA

CITY           SKY/WX    TMP DP  RH WIND       PRES   REMARKS
FARGO          PTCLDY     8  -2  63 S14       30.35F WCI  -8
JAMESTOWN      PTCLDY     4  -3  73 S16       30.21F WCI -15
$$



USA.gov is the U.S. government's official web portal to all federal, state and local government web resources and services.